This is the latest recevied weather packets stored in our database for station/object DC1MPP-9. If no packets are shown the sender has not sent any weather packets the latest 1 day(s).
| Time | Temp. | Humidity | Pressure | Rain* | Wind** | Luminosity | Snow |
|---|---|---|---|---|---|---|---|
| 1777976180 | 25° C | 40% | 950 hPa | - | 0 m/s | - | - |
| 1777975939 | 25.56° C | 42% | 950 hPa | - | 0 m/s | - | - |
| 1777975698 | 26.11° C | 35% | 950 hPa | - | 0 m/s | - | - |
| 1777975457 | 26.11° C | 37% | 950 hPa | - | 0 m/s | - | - |
| 1777975217 | 26.11° C | 36% | 950 hPa | - | 0 m/s | - | - |
| 1777975216 | 26.11° C | 36% | 950 hPa | - | 0 m/s | - | - |
| 1777974975 | 26.11° C | 39% | 950 hPa | - | 0 m/s | - | - |
| 1777974734 | 26.11° C | 38% | 950 hPa | - | 0 m/s | - | - |
| 1777974493 | 26.11° C | 42% | 950 hPa | - | 0 m/s | - | - |
| 1777974252 | 25° C | 42% | 950 hPa | - | 0 m/s | - | - |
| 1777974011 | 25° C | 41% | 950 hPa | - | 0 m/s | - | - |
| 1777973770 | 25.56° C | 40% | 951 hPa | - | 0 m/s | - | - |
| 1777973529 | 25.56° C | 45% | 950 hPa | - | 0 m/s | - | - |
| 1777973288 | 25° C | 39% | 951 hPa | - | 0 m/s | - | - |
| 1777973047 | 24.44° C | 44% | 951 hPa | - | 0 m/s | - | - |
| 1777972805 | 24.44° C | 48% | 951 hPa | - | 0 m/s | - | - |
| 1777972564 | 23.89° C | 44% | 951 hPa | - | 0 m/s | - | - |
| 1777972332 | 23.33° C | 44% | 951 hPa | - | 0 m/s | - | - |
| 1777972082 | 23.33° C | 42% | 951 hPa | - | 0 m/s | - | - |
| 1777971841 | 23.89° C | 47% | 951 hPa | - | 0 m/s | - | - |
| 1777971600 | 23.89° C | 46% | 951 hPa | - | 0 m/s | - | - |
| 1777971359 | 23.89° C | 49% | 951 hPa | - | 0 m/s | - | - |
| 1777971118 | 23.33° C | 51% | 951 hPa | - | 0 m/s | - | - |
| 1777970877 | 23.33° C | 48% | 951 hPa | - | 0 m/s | - | - |
| 1777970636 | 23.33° C | 48% | 951 hPa | - | 0 m/s | - | - |
* Rain since midnight (hover to see other rain measurements)
** Current wind speed in m/s (hover to see current wind gust speed)